Doha, Qatar

5:23 PM +03 on April 30, 2017 (GMT +0300)
Doha International

Weather History for OTBD - January, 2014

Change the Weather History Date:

Wednesday, January 29, 2014

  Actual Average Record
Temperature  
Mean Temperature 70 °F -  
Max Temperature 78 °F 73 °F 82 °F (2011)
Min Temperature 63 °F 57 °F 51 °F (2016)
Cooling Degree Days 6    
Growing Degree Days 20 (Base 50)    
Moisture  
Dew Point 59 °F    
Average Humidity 68    
Maximum Humidity 94    
Minimum Humidity 27    
Precipitation  
Precipitation 0.00 in 0.02 in - ()
Sea Level Pressure  
Sea Level Pressure 30.05 in    
Wind  
Wind Speed 4 mph ()    
Max Wind Speed 12 mph    
Max Gust Speed -    
Visibility 6.5 miles    
Events      
Averages and records for this station are not official NWS values.
T = Trace of Precipitation, MM = Missing Value Source: Averaged Metar Reports

Daily Weather History Graph

Daily Weather History Graph

Search for Another Location

Airport or City:

Trip Planner

Search our weather history database for the weather conditions in past years. The results will help you decide how hot, cold, wet, or windy it might be!

Date:

Astronomy

Jan. 29, 2014 Rise Set
Actual Time 6:18 AM +03 5:15 PM +03
Civil Twilight 5:54 AM +03 5:39 PM +03
Nautical Twilight 5:26 AM +03 6:07 PM +03
Astronomical Twilight 4:59 AM +03 6:34 PM +03
Moon 4:31 AM +03 (1/29) 3:48 PM +03 (1/29)
Length of Visible Light 11h 45m
Length of Day
10h 57m
Waning Crescent, 4% of the Moon is Illuminated
Jan 29
Waning Crescent
Jan 31
New
Feb 6
First Quarter
Feb 15
Full
Feb 22
Last Quarter

Hourly Weather History & Observations

Time (+03) Temp. Dew Point Humidity Pressure Visibility Wind Dir Wind Speed Gust Speed Precip Events Conditions
12:00 AM 67 °F 62 °F 81% 30.04 in 6 mi NE 3.5 mph - -   Scattered Clouds
12:00 AM 66.2 °F 62.6 °F 88% 30.04 in - NE 3.5 mph - N/A   Clear
12:30 AM 66.2 °F 62.6 °F 88% 30.04 in - Variable 2.3 mph - N/A   Clear
1:00 AM 66.2 °F 62.6 °F 88% 30.01 in - East 3.5 mph - N/A   Clear
1:30 AM 66.2 °F 62.6 °F 88% 30.01 in - SE 4.6 mph - N/A   Clear
2:00 AM 66.2 °F 59.0 °F 78% 30.01 in - SE 4.6 mph - N/A   Clear
2:30 AM 66.2 °F 60.8 °F 83% 30.01 in - ESE 3.5 mph - N/A   Clear
3:00 AM 67 °F 61 °F 75% 30.02 in 6 mi East 3.5 mph - -  
3:00 AM 66.2 °F 60.8 °F 83% 30.01 in - East 3.5 mph - N/A   Clear
3:30 AM 66.2 °F 60.8 °F 83% 30.01 in - Calm Calm - N/A   Clear
4:00 AM 66.2 °F 62.6 °F 88% 30.01 in - East 3.5 mph - N/A   Clear
4:30 AM 66.2 °F 62.6 °F 88% 30.01 in - ESE 3.5 mph - N/A   Clear
5:00 AM 66.2 °F 62.6 °F 88% 30.01 in - Variable 1.2 mph - N/A   Clear
5:30 AM 66.2 °F 62.6 °F 88% 30.04 in - Calm Calm - N/A   Clear
6:00 AM 64 °F 61 °F 88% 30.06 in 6 mi 1.2 mph - -   Haze
6:00 AM 64.4 °F 60.8 °F 88% 30.04 in 5.6 mi Variable 1.2 mph - N/A   Unknown
6:30 AM 64.4 °F 62.6 °F 94% 30.04 in 5.0 mi NNE 2.3 mph - N/A   Unknown
7:00 AM 64.4 °F 60.8 °F 88% 30.06 in 5.0 mi Variable 2.3 mph - N/A   Unknown
7:30 AM 66.2 °F 62.6 °F 88% 30.09 in 5.0 mi NNE 3.5 mph - N/A   Unknown
8:00 AM 69.8 °F 64.4 °F 83% 30.09 in 5.6 mi Variable 2.3 mph - N/A   Unknown
8:30 AM 71.6 °F 62.6 °F 73% 30.09 in - East 6.9 mph - N/A   Clear
9:00 AM 72 °F 62 °F 63% 30.12 in 7 mi ESE 6.9 mph - -   Scattered Clouds
9:30 AM 73.4 °F 59.0 °F 61% 30.09 in - ESE 10.4 mph - N/A   Clear
10:00 AM 75.2 °F 59.0 °F 57% 30.12 in - SE 5.8 mph - N/A   Clear
10:30 AM 75.2 °F 59.0 °F 57% 30.09 in - SE 5.8 mph - N/A   Clear
11:00 AM 77.0 °F 57.2 °F 50% 30.09 in - SSE 8.1 mph - N/A   Clear
11:30 AM 77.0 °F 55.4 °F 47% 30.06 in - SE 8.1 mph - N/A   Clear
12:00 PM 76 °F 57 °F 41%  in 10 mi SSE 8.1 mph - -  
12:00 PM 75.2 °F 57.2 °F 53% 30.06 in - SSE 8.1 mph - N/A   Clear
1:00 PM 77.0 °F 51.8 °F 41% 30.04 in - SE 9.2 mph - N/A   Clear
1:30 PM 78.8 °F 50.0 °F 36% 30.04 in - SSE 10.4 mph - N/A   Clear
2:00 PM 78.8 °F 50.0 °F 36% 30.04 in - SSE 11.5 mph - N/A   Clear
2:30 PM 77.0 °F 50.0 °F 39% 30.04 in - SE 10.4 mph - N/A   Clear
3:00 PM 77 °F 50 °F 27% 30.04 in 9 mi SSE 10.4 mph - -   Scattered Clouds
3:00 PM 77.0 °F 50.0 °F 39% 30.04 in - SSE 10.4 mph - N/A   Clear
3:30 PM 77.0 °F 51.8 °F 41% 30.04 in - SE 9.2 mph - N/A   Clear
4:00 PM 78.8 °F 53.6 °F 42% 30.04 in - SE 4.6 mph - N/A   Clear
4:30 PM 77.0 °F 53.6 °F 44% 30.04 in - SE 5.8 mph - N/A   Clear
5:00 PM 75.2 °F 53.6 °F 47% 30.04 in - ESE 4.6 mph - N/A   Clear
5:30 PM 73.4 °F 55.4 °F 53% 30.04 in - ESE 4.6 mph - N/A   Clear
6:00 PM 73 °F 57 °F 47% 30.05 in 7 mi SE 4.6 mph - -   Scattered Clouds
6:00 PM 73.4 °F 57.2 °F 57% 30.04 in - SE 4.6 mph - N/A   Clear
6:30 PM 71.6 °F 57.2 °F 60% 30.04 in - ESE 3.5 mph - N/A   Clear
7:00 PM 69.8 °F 64.4 °F 83% 30.04 in - Variable 2.3 mph - N/A   Clear
7:30 PM 69.8 °F 64.4 °F 83% 30.04 in - SE 4.6 mph - N/A   Clear
8:00 PM 69.8 °F 64.4 °F 83% 30.04 in - Variable 2.3 mph - N/A   Clear
8:30 PM 69.8 °F 64.4 °F 83% 30.06 in - Calm Calm - N/A   Clear
9:00 PM 69 °F 63 °F 77% 30.06 in 7 mi Calm Calm - -   Scattered Clouds
9:00 PM 69.8 °F 62.6 °F 78% 30.06 in - Calm Calm - N/A   Clear
9:30 PM 69.8 °F 62.6 °F 78% 30.04 in - Variable 2.3 mph - N/A   Clear
10:00 PM 69.8 °F 62.6 °F 78% 30.06 in - Variable 1.2 mph - N/A   Clear
10:30 PM 69.8 °F 60.8 °F 73% 30.06 in - Variable 2.3 mph - N/A   Clear
11:00 PM 69.8 °F 60.8 °F 73% 30.06 in - Variable 2.3 mph - N/A   Clear
11:30 PM 69.8 °F 62.6 °F 78% 30.06 in - Variable 1.2 mph - N/A   Clear